When you browse on this site, cookies collect data to enhance your experience and personalize the content and advertising you see.
Visit our Privacy Policy to learn more. By continuing to use the site, you agree to this use of cookies and data.
  • în România
  • Lista ţărilor
  • Pe 7 zile
  • Temperatura apei
  • Hartă satelitară
  • Meteo pe hartă
  • Widget-uri
  • user-avatar
    Intrare

    Meteo pe oră la Savostino

    Astăzi, 24 Martie, Duminică

    Timp Temperatura Precipitaţii Vânt Presiune Umiditate
    00:00 0°C° 0.9 mm 4 m/s 743 mmHg 78%
    01:00 +1°C° 0.9 mm 3 m/s 742 mmHg 79%
    02:00 +1°C° 0 mm 3 m/s 741 mmHg 81%
    03:00 +1°C° 0.2 mm 3 m/s 741 mmHg 82%
    04:00 +1°C° 0.2 mm 3 m/s 740 mmHg 84%
    05:00 +1°C° 0.2 mm 3 m/s 740 mmHg 85%
    06:00 +1°C° 0 mm 3 m/s 739 mmHg 86%
    07:00 +1°C° 0 mm 4 m/s 739 mmHg 87%
    08:00 +1°C° 0 mm 4 m/s 739 mmHg 87%
    09:00 +3°C° 0 mm 4 m/s 739 mmHg 81%
    10:00 +2°C° 0 mm 5 m/s 739 mmHg 76%
    11:00 +3°C° 0 mm 5 m/s 739 mmHg 70%
    12:00 +4°C° 0.1 mm 6 m/s 739 mmHg 65%
    13:00 +4°C° 0.1 mm 6 m/s 739 mmHg 59%
    14:00 +4°C° 0.1 mm 6 m/s 739 mmHg 54%
    15:00 +5°C° 0 mm 5 m/s 739 mmHg 57%
    16:00 +4°C° 0 mm 4 m/s 739 mmHg 59%
    17:00 +3°C° 0 mm 3 m/s 739 mmHg 61%
    18:00 +2°C° 0 mm 3 m/s 739 mmHg 65%
    19:00 +1°C° 0 mm 3 m/s 739 mmHg 68%
    20:00 +1°C° 0 mm 2 m/s 739 mmHg 72%
    21:00 -1°C° 0 mm 2 m/s 739 mmHg 74%
    22:00 -1°C° 0 mm 2 m/s 739 mmHg 76%
    23:00 -2°C° 0 mm 2 m/s 739 mmHg 78%

    Mâine, 25 Martie, Luni

    Timp Temperatura Precipitaţii Vânt Presiune Umiditate
    00:00 -2°C° 0 mm 2 m/s 739 mmHg 79%
    01:00 -2°C° 0 mm 2 m/s 739 mmHg 80%
    02:00 -3°C° 0 mm 2 m/s 739 mmHg 81%
    03:00 -3°C° 0 mm 2 m/s 739 mmHg 81%
    04:00 -3°C° 0 mm 2 m/s 739 mmHg 82%
    05:00 -3°C° 0 mm 2 m/s 738 mmHg 82%
    06:00 -2°C° 0 mm 2 m/s 738 mmHg 78%
    07:00 -1°C° 0 mm 2 m/s 738 mmHg 73%
    08:00 0°C° 0 mm 3 m/s 738 mmHg 69%
    09:00 +1°C° 0 mm 3 m/s 738 mmHg 62%
    10:00 +3°C° 0 mm 3 m/s 738 mmHg 55%
    11:00 +5°C° 0 mm 4 m/s 737 mmHg 48%
    12:00 +5°C° 0 mm 4 m/s 737 mmHg 47%
    13:00 +5°C° 0 mm 4 m/s 737 mmHg 46%
    14:00 +6°C° 0 mm 4 m/s 736 mmHg 45%
    15:00 +5°C° 0 mm 3 m/s 736 mmHg 51%
    16:00 +5°C° 0 mm 2 m/s 736 mmHg 56%
    17:00 +5°C° 0 mm 2 m/s 736 mmHg 62%
    18:00 +3°C° 0 mm 2 m/s 736 mmHg 67%
    19:00 +2°C° 0 mm 2 m/s 736 mmHg 72%
    20:00 +1°C° 0 mm 2 m/s 735 mmHg 77%
    21:00 -1°C° 0 mm 2 m/s 735 mmHg 78%
    22:00 -1°C° 0 mm 2 m/s 735 mmHg 78%
    23:00 -1°C° 0 mm 2 m/s 735 mmHg 79%

    Poimâine, 26 Martie, Marţi

    Timp Temperatura Precipitaţii Vânt Presiune Umiditate
    00:00 -1°C° 0 mm 2 m/s 735 mmHg 82%
    01:00 -1°C° 0 mm 2 m/s 735 mmHg 85%
    02:00 -2°C° 0 mm 2 m/s 734 mmHg 88%
    03:00 -1°C° 0.2 mm 2 m/s 734 mmHg 89%
    04:00 -1°C° 0.2 mm 2 m/s 734 mmHg 91%
    05:00 -1°C° 0.2 mm 3 m/s 734 mmHg 92%
    06:00 -1°C° 0.4 mm 3 m/s 734 mmHg 89%
    07:00 -2°C° 0.4 mm 4 m/s 734 mmHg 87%
    08:00 -2°C° 0.4 mm 4 m/s 734 mmHg 84%
    09:00 -2°C° 0.1 mm 4 m/s 734 mmHg 79%
    10:00 -1°C° 0.1 mm 4 m/s 734 mmHg 74%
    11:00 -1°C° 0.1 mm 4 m/s 734 mmHg 68%
    12:00 -1°C° 0.1 mm 4 m/s 734 mmHg 64%
    13:00 0°C° 0.1 mm 4 m/s 734 mmHg 59%
    14:00 0°C° 0.1 mm 4 m/s 734 mmHg 55%
    15:00 +1°C° 0.1 mm 3 m/s 734 mmHg 57%
    16:00 +1°C° 0.1 mm 2 m/s 735 mmHg 59%
    17:00 +2°C° 0.1 mm 1 m/s 735 mmHg 62%
    18:00 +1°C° 0 mm 1 m/s 735 mmHg 67%
    19:00 -1°C° 0 mm 1 m/s 735 mmHg 72%
    20:00 -2°C° 0 mm 1 m/s 736 mmHg 77%
    21:00 -2°C° 0 mm 1 m/s 736 mmHg 78%
    22:00 -2°C° 0 mm 1 m/s 736 mmHg 79%
    23:00 -3°C° 0 mm 1 m/s 737 mmHg 80%

    27 Martie, Miercuri

    Timp Temperatura Precipitaţii Vânt Presiune Umiditate
    00:00 -5°C° 0 mm 2 m/s 737 mmHg 81%
    01:00 -5°C° 0 mm 2 m/s 738 mmHg 81%
    02:00 -6°C° 0 mm 3 m/s 738 mmHg 82%
    03:00 -6°C° 0 mm 3 m/s 738 mmHg 83%
    04:00 -6°C° 0 mm 3 m/s 739 mmHg 84%
    05:00 -7°C° 0 mm 4 m/s 739 mmHg 85%
    06:00 -5°C° 0.1 mm 4 m/s 740 mmHg 81%
    07:00 -5°C° 0.1 mm 5 m/s 740 mmHg 77%
    08:00 -4°C° 0.1 mm 5 m/s 741 mmHg 74%
    09:00 -4°C° 0.1 mm 5 m/s 741 mmHg 70%
    10:00 -2°C° 0.1 mm 5 m/s 742 mmHg 66%
    11:00 -2°C° 0.1 mm 5 m/s 742 mmHg 62%
    12:00 -2°C° 0.1 mm 5 m/s 743 mmHg 61%
    13:00 -2°C° 0.1 mm 6 m/s 743 mmHg 60%
    14:00 -2°C° 0.1 mm 6 m/s 744 mmHg 60%
    15:00 -1°C° 0 mm 5 m/s 744 mmHg 62%
    16:00 -2°C° 0 mm 5 m/s 745 mmHg 64%
    17:00 -2°C° 0 mm 5 m/s 746 mmHg 66%
    18:00 -2°C° 0 mm 4 m/s 746 mmHg 67%
    19:00 -3°C° 0 mm 4 m/s 747 mmHg 68%
    20:00 -2°C° 0 mm 3 m/s 748 mmHg 70%
    21:00 -4°C° 0 mm 3 m/s 748 mmHg 73%
    22:00 -5°C° 0 mm 3 m/s 748 mmHg 76%
    23:00 -5°C° 0 mm 3 m/s 749 mmHg 79%

    28 Martie, Joi

    Timp Temperatura Precipitaţii Vânt Presiune Umiditate
    00:00 -6°C° 0 mm 3 m/s 749 mmHg 80%
    01:00 -6°C° 0 mm 3 m/s 750 mmHg 82%
    02:00 -6°C° 0 mm 3 m/s 750 mmHg 83%
    03:00 -6°C° 0 mm 2 m/s 751 mmHg 83%
    04:00 -6°C° 0 mm 2 m/s 751 mmHg 84%
    05:00 -6°C° 0 mm 2 m/s 751 mmHg 84%
    06:00 -5°C° 0 mm 2 m/s 752 mmHg 78%
    07:00 -4°C° 0 mm 2 m/s 752 mmHg 72%
    08:00 -3°C° 0 mm 2 m/s 753 mmHg 66%
    09:00 -2°C° 0 mm 2 m/s 753 mmHg 57%
    10:00 +1°C° 0 mm 2 m/s 753 mmHg 48%
    11:00 +2°C° 0 mm 2 m/s 753 mmHg 40%
    12:00 +3°C° 0 mm 2 m/s 753 mmHg 40%
    13:00 +2°C° 0 mm 3 m/s 752 mmHg 40%
    14:00 +3°C° 0 mm 3 m/s 752 mmHg 41%
    15:00 +3°C° 0 mm 3 m/s 752 mmHg 46%
    16:00 +2°C° 0 mm 3 m/s 751 mmHg 52%
    17:00 +3°C° 0 mm 2 m/s 751 mmHg 58%
    18:00 +1°C° 0 mm 3 m/s 751 mmHg 62%
    19:00 0°C° 0 mm 3 m/s 750 mmHg 66%
    20:00 0°C° 0 mm 3 m/s 750 mmHg 70%
    21:00 0°C° 0 mm 3 m/s 750 mmHg 72%
    22:00 -1°C° 0 mm 3 m/s 749 mmHg 74%
    23:00 -2°C° 0 mm 4 m/s 749 mmHg 76%

    29 Martie, Vineri

    Timp Temperatura Precipitaţii Vânt Presiune Umiditate
    00:00 -2°C° 0 mm 4 m/s 749 mmHg 80%
    01:00 -1°C° 0 mm 4 m/s 748 mmHg 84%
    02:00 -1°C° 0 mm 5 m/s 748 mmHg 87%
    03:00 -1°C° 0 mm 5 m/s 747 mmHg 88%
    04:00 0°C° 0 mm 5 m/s 747 mmHg 89%
    05:00 0°C° 0 mm 5 m/s 747 mmHg 89%
    06:00 0°C° 0 mm 5 m/s 747 mmHg 87%
    07:00 0°C° 0 mm 5 m/s 747 mmHg 86%
    08:00 0°C° 0 mm 5 m/s 747 mmHg 84%
    09:00 +1°C° 0 mm 5 m/s 748 mmHg 76%
    10:00 +3°C° 0 mm 4 m/s 748 mmHg 69%
    11:00 +4°C° 0 mm 4 m/s 748 mmHg 61%
    12:00 +5°C° 0 mm 4 m/s 748 mmHg 59%
    13:00 +5°C° 0 mm 4 m/s 748 mmHg 56%
    14:00 +7°C° 0 mm 3 m/s 747 mmHg 54%
    15:00 +7°C° 0 mm 3 m/s 747 mmHg 59%
    16:00 +6°C° 0 mm 2 m/s 747 mmHg 64%
    17:00 +7°C° 0 mm 1 m/s 746 mmHg 69%
    18:00 +4°C° 0 mm 2 m/s 746 mmHg 75%
    19:00 +3°C° 0 mm 2 m/s 746 mmHg 82%
    20:00 +2°C° 0 mm 2 m/s 745 mmHg 88%
    21:00 +2°C° 0 mm 2 m/s 745 mmHg 90%
    22:00 +2°C° 0 mm 2 m/s 745 mmHg 92%
    23:00 +2°C° 0 mm 3 m/s 744 mmHg 94%
    Arată mai mult